Preview of NWS' New Version of Forecast
This preview is not operational and should not be used for support decisions.

Regional Weather Roundup (RWR)

Issued by National Weather Service (NWS)

                            
000
ASUS45 KBOI 242210
RWRID 

IDAHO REGIONAL WEATHER ROUNDUP
NATIONAL WEATHER SERVICE BOISE ID
400 PM MDT MON JUN 24 2019

NOTE: "FAIR" INDICATES FEW OR NO CLOUDS BELOW 12000 FEET
WITH NO SIGNIFICANT WEATHER AND/OR OBSTRUCTIONS TO VISIBILITY

IDZ012-014-242300-
SOUTHWEST IDAHO

  
CITY           SKY/WX    TMP DP  RH WIND       PRES   REMARKS
BOISE          SUNNY     77  40  26 NW12G25   29.91F                  
CALDWELL       SUNNY     77  42  28 CALM      29.90F                  
MOUNTAIN HOME  SUNNY     79  37  21 N16G22    29.89F                  
$$

IDZ016-017-242300-
SOUTHCENTRAL IDAHO

  
CITY           SKY/WX    TMP DP  RH WIND       PRES   REMARKS
BURLEY         SUNNY     74  38  27 NW13      29.93F                  
JEROME         SUNNY     77  39  25 NW9       29.94F                  
TWIN FALLS     SUNNY     76  37  24 NW9G17    29.94F                  
$$

IDZ019>023-242300-
SOUTHEAST IDAHO

  
CITY           SKY/WX    TMP DP  RH WIND       PRES   REMARKS
IDAHO FALLS    SUNNY     73  31  21 SW28G40   29.92F                  
POCATELLO      MOSUNNY   76  32  20 W20G28    29.96F                  
REXBURG        MOSUNNY   73  31  21 SW21G31   29.90F                  
$$

IDZ006-010-011-018-031-032-242300-
CENTRAL IDAHO MOUNTAINS

  
CITY           SKY/WX    TMP DP  RH WIND       PRES   REMARKS
MCCALL         PTSUNNY   63  32  31 S9        29.96F                  
HAILEY         MOSUNNY   68  39  34 S10G17    29.98F                  
STANLEY          N/A     61  30  31 CALM      30.02F                  
SALMON         MOSUNNY   70  36  28 N8        29.88F                  
CHALLIS        MOSUNNY   72  28  19 VRB7G22   29.91F                  
$$

IDZ002-004-006-007-026-242300-
NORTHERN IDAHO

  
CITY           SKY/WX    TMP DP  RH WIND       PRES   REMARKS
LEWISTON       SUNNY     77  39  25 NW8       29.89F                  
LOWELL           N/A     77  45  32 VRB5      29.87F                  
COEUR D'ALENE  SUNNY     67  43  41 S8        29.93F                  
MULLAN PASS    MOSUNNY   55  36  48 VRB6      30.00S                  
$$